FW7048 Weather Reports


time (UTC)temp
C
wind
direction
speed
KPH
gust
KPH
rain 1hr
cm
rain 24hr
cm
rain mn
cm
humidity
%
barometer
mb
20260502161619 16 5 1.6 8.0 0.00 0.00 0.00 30 1022.7
20260502151556 13 5 4.8 8.0 0.00 0.00 0.00 34 1022.7
20260502123115 7 0 0.0 4.8 0.00 0.00 0.00 43 1022.2
20260502121559 7 0 0.0 3.2 0.00 0.00 0.00 42 1022.0
20260502120111 7 0 0.0 4.8 0.00 0.00 0.00 42 1022.0
20260502114552 7 0 0.0 3.2 0.00 0.00 0.00 42 1022.2
20260502113058 7 5 0.0 6.4 0.00 0.00 0.00 41 1022.1
20260502111552 7 5 6.4 17.7 0.00 0.00 0.00 39 1022.0
20260502110053 8 5 1.6 4.8 0.00 0.00 0.00 38 1022.1
20260502104552 8 5 0.0 6.4 0.00 0.00 0.00 36 1022.0
20260502103051 8 0 0.0 3.2 0.00 0.00 0.00 38 1022.1
20260502101556 8 0 0.0 3.2 0.00 0.00 0.00 38 1022.0
20260502070111 8 5 0.0 6.4 0.00 0.00 0.00 41 1022.0
20260502064559 9 5 0.0 3.2 0.00 0.00 0.00 42 1022.0
20260502063105 10 0 0.0 3.2 0.00 0.00 0.00 45 1022.0
20260502061603 10 5 3.2 6.4 0.00 0.00 0.00 45 1021.9
20260502060057 8 5 0.0 12.9 0.00 0.00 0.00 41 1022.1
20260502054553 8 5 0.0 14.5 0.00 0.00 0.00 44 1022.0
20260502053057 8 5 3.2 8.0 0.00 0.00 0.00 45 1022.0
20260502051602 9 5 4.8 12.9 0.00 0.00 0.00 46 1021.9
20260502050054 9 0 0.0 3.2 0.00 0.00 0.00 49 1022.0
20260502044604 9 0 0.0 1.6 0.00 0.00 0.00 48 1021.9
20260502043057 9 0 0.0 4.8 0.00 0.00 0.00 49 1022.0
20260502041551 9 0 0.0 4.8 0.00 0.00 0.00 50 1021.9
20260502034550 10 5 1.6 6.4 0.00 0.00 0.00 47 1021.7
20260502033052 11 0 3.2 9.7 0.00 0.00 0.00 44 1021.5
20260502031553 12 5 1.6 4.8 0.00 0.00 0.00 43 1021.4
20260502030054 12 0 0.0 3.2 0.00 0.00 0.00 45 1020.9
20260502024555 12 0 0.0 1.6 0.00 0.00 0.00 42 1020.9
20260502023055 13 5 0.0 1.6 0.00 0.00 0.00 39 1020.8
20260502021556 14 0 0.0 12.9 0.00 0.00 0.00 36 1020.6
20260502020057 15 5 4.8 12.9 0.00 0.00 0.00 35 1020.6
20260502014554 15 5 4.8 12.9 0.00 0.00 0.00 35 1020.3
20260502013057 16 5 11.3 19.3 0.00 0.00 0.00 34 1020.3
20260502011553 16 5 12.9 22.5 0.00 0.00 0.00 33 1020.3
20260502010055 16 5 12.9 24.1 0.00 0.00 0.00 33 1020.2
20260502004554 16 5 12.9 27.4 0.00 0.00 0.00 33 1020.3
20260502003055 16 5 17.7 27.4 0.00 0.00 0.00 32 1020.1
20260502001557 16 5 16.1 30.6 0.00 0.00 0.00 33 1020.2
20260502000059 16 5 16.1 29.0 0.00 0.00 0.00 34 1020.2
20260501234600 16 9 19.3 30.6 0.00 0.00 0.00 33 1020.3
20260501233058 16 5 12.9 35.4 0.00 0.00 0.00 33 1020.5
20260501231602 16 5 16.1 27.4 0.00 0.00 0.00 31 1020.5
20260501224556 16 5 12.9 32.2 0.00 0.00 0.00 31 1020.6
20260501223104 16 5 16.1 32.2 0.00 0.00 0.00 29 1020.8
20260501221605 16 9 11.3 25.7 0.00 0.00 0.00 31 1020.6
20260501220108 16 5 19.3 32.2 0.00 0.00 0.00 30 1021.0
20260501214604 16 5 11.3 27.4 0.00 0.00 0.00 32 1021.0
20260501213107 16 5 16.1 37.0 0.00 0.00 0.00 30 1021.2
20260501210100 16 5 14.5 30.6 0.00 0.00 0.00 25 1021.2
20260501204559 16 5 11.3 22.5 0.00 0.00 0.00 27 1021.3
20260501203058 16 5 11.3 22.5 0.00 0.00 0.00 26 1021.5
20260501201559 15 5 16.1 33.8 0.00 0.00 0.00 27 1021.5
20260501200056 15 5 8.0 24.1 0.00 0.00 0.00 27 1021.5
20260501194615 15 5 9.7 24.1 0.00 0.00 0.00 27 1021.5
20260501193054 15 5 11.3 25.7 0.00 0.00 0.00 28 1021.5
20260501191557 15 5 11.3 24.1 0.00 0.00 0.00 27 1021.6
20260501190056 15 5 9.7 22.5 0.00 0.00 0.00 26 1021.9
20260501184554 15 5 8.0 22.5 0.00 0.00 0.00 24 1021.9
20260501183055 15 5 11.3 20.9 0.00 0.00 0.00 24 1022.0
20260501181620 15 5 4.8 17.7 0.00 0.00 0.00 25 1022.2
20260501180059 14 5 8.0 19.3 0.00 0.00 0.00 25 1022.2
20260501174557 13 5 3.2 16.1 0.00 0.00 0.00 28 1022.2
20260501173109 13 5 3.2 12.9 0.00 0.00 0.00 25 1022.3
20260501171555 13 5 9.7 19.3 0.00 0.00 0.00 26 1022.5
20260501170055 13 5 6.4 17.7 0.00 0.00 0.00 30 1022.4
20260501164556 13 5 3.2 12.9 0.00 0.00 0.00 25 1022.4
20260501163054 13 5 3.2 9.7 0.00 0.00 0.00 29 1022.3